Location: Fort Wayne
(41.1310°N, 85.1290°W)
Time: 21:47:20
(UTC-04:00)

Tiros 1 despin weight - Visible Passes

Search period start: 16 October 2017 00:00
Search period end: 26 October 2017 00:00
Orbit: 594 x 644 km, 48.2° (Epoch: 16 October)

Date Brightness Start Highest point End Pass type
(mag) Time Alt. Az. Time Alt. Az. Time Alt. Az.
16 Oct ? 20:06:11 10° S 20:09:23 19° SE 20:10:04 18° ESE visible
16 Oct ? 21:45:50 10° WSW 21:47:10 19° WSW 21:47:10 19° WSW visible
17 Oct ? 20:21:49 10° SSW 20:26:00 35° SE 20:26:48 33° ESE visible
17 Oct ? 22:02:52 10° WSW 22:03:54 16° W 22:03:54 16° W visible
18 Oct ? 20:38:12 10° SW 20:42:46 64° SE 20:43:24 57° ESE visible
18 Oct ? 22:20:07 10° W 22:20:31 12° W 22:20:31 12° W visible
19 Oct ? 20:55:03 10° WSW 20:59:41 77° NNW 20:59:54 75° N visible
20 Oct ? 19:30:43 10° SW 19:35:06 46° SE 19:39:12 12° ENE visible
20 Oct ? 21:12:11 10° W 21:16:17 50° NW 21:16:17 50° NW visible
21 Oct ? 19:47:19 10° SW 19:51:56 81° SSE 19:55:30 17° ENE visible
21 Oct ? 21:29:29 10° W 21:32:36 33° NW 21:32:36 33° NW visible
22 Oct ? 20:04:19 10° WSW 20:08:53 64° NNW 20:11:45 23° NE visible
22 Oct ? 21:46:48 10° WNW 21:48:50 22° NW 21:48:50 22° NW visible
23 Oct ? 20:21:32 10° W 20:25:59 45° NNW 20:27:56 28° NE visible
23 Oct ? 22:04:01 10° WNW 22:05:01 15° NW 22:05:01 15° NW visible
24 Oct ? 20:38:51 10° WNW 20:43:08 36° N 20:44:04 33° NNE visible
24 Oct ? 22:21:06 10° WNW 22:21:09 10° WNW 22:21:09 10° WNW visible
25 Oct ? 19:13:37 10° W 19:18:07 53° NNW 19:22:41 10° ENE visible
25 Oct ? 20:56:08 10° WNW 21:00:11 34° N 21:00:11 34° N visible
